Time,TemperatureF,DewpointF,PressureIn,WindDirection,WindDirectionDegrees,WindSpeedMPH,WindSpeedGustMPH,Humidity,HourlyPrecipIn,Conditions,Clouds,dailyrainin,SoftwareType,DateUTC
2013-01-13 00:08:00,43.2,42.1,30.05,West,270,1.7,-999.0,96,-99.99,,,0.00,Acu-Link.com,2013-01-13 05:08:00,
2013-01-13 00:23:00,43.2,42.1,30.06,West,270,2.2,-999.0,96,-99.99,,,0.00,Acu-Link.com,2013-01-13 05:23:00,
2013-01-13 00:38:00,43.2,42.1,30.07,SSE,157,1.1,-999.0,96,-99.99,,,0.00,Acu-Link.com,2013-01-13 05:38:00,
2013-01-13 00:54:00,43.2,42.1,30.06,SSW,202,2.7,-999.0,96,-99.99,,,0.00,Acu-Link.com,2013-01-13 05:54:00,
2013-01-13 01:09:00,43.2,42.1,30.07,SW,225,1.7,-999.0,96,-99.99,,,0.00,Acu-Link.com,2013-01-13 06:09:00,
2013-01-13 01:24:00,43.3,42.5,30.06,SE,135,1.7,-999.0,97,-99.99,,,0.00,Acu-Link.com,2013-01-13 06:24:00,
2013-01-13 01:39:00,43.3,42.5,30.06,East,90,1.1,-999.0,97,-99.99,,,0.00,Acu-Link.com,2013-01-13 06:39:00,
2013-01-13 01:55:00,43.0,42.2,30.07,NNW,337,0.0,-999.0,97,-99.99,,,0.00,Acu-Link.com,2013-01-13 06:55:00,
2013-01-13 02:10:00,43.0,42.2,30.08,ESE,112,0.0,-999.0,97,-99.99,,,0.00,Acu-Link.com,2013-01-13 07:10:00,
2013-01-13 02:25:00,42.8,42.0,30.07,SW,225,2.7,-999.0,97,-99.99,,,0.00,Acu-Link.com,2013-01-13 07:25:00,
2013-01-13 02:41:00,42.6,41.8,30.07,WSW,247,1.7,-999.0,97,-99.99,,,0.00,Acu-Link.com,2013-01-13 07:41:00,
2013-01-13 02:56:00,42.6,41.8,30.05,East,90,0.0,-999.0,97,-99.99,,,0.00,Acu-Link.com,2013-01-13 07:56:00,
2013-01-13 03:11:00,42.6,41.8,30.06,SSW,202,1.7,-999.0,97,-99.99,,,0.00,Acu-Link.com,2013-01-13 08:11:00,
2013-01-13 03:27:00,43.0,42.2,30.06,SSW,202,2.2,-999.0,97,-99.99,,,0.00,Acu-Link.com,2013-01-13 08:27:00,
2013-01-13 03:42:00,43.2,42.4,30.06,SW,225,1.1,-999.0,97,-99.99,,,0.00,Acu-Link.com,2013-01-13 08:42:00,
2013-01-13 03:58:00,43.2,42.4,30.05,SW,225,2.7,-999.0,97,-99.99,,,0.00,Acu-Link.com,2013-01-13 08:58:00,
2013-01-13 04:13:00,43.3,42.5,30.04,West,270,1.7,-999.0,97,-99.99,,,0.00,Acu-Link.com,2013-01-13 09:13:00,
2013-01-13 04:28:00,43.2,42.4,30.04,WSW,247,0.0,-999.0,97,-99.99,,,0.00,Acu-Link.com,2013-01-13 09:28:00,
2013-01-13 04:43:00,43.0,42.2,30.05,West,270,1.1,-999.0,97,-99.99,,,0.00,Acu-Link.com,2013-01-13 09:43:00,
2013-01-13 04:59:00,42.6,41.8,30.04,NNE,22,1.7,-999.0,97,-99.99,,,0.00,Acu-Link.com,2013-01-13 09:59:00,
2013-01-13 05:14:00,42.6,41.8,30.04,WSW,247,4.2,-999.0,97,-99.99,,,0.00,Acu-Link.com,2013-01-13 10:14:00,
2013-01-13 05:30:00,42.6,41.8,30.04,West,270,2.2,-999.0,97,-99.99,,,0.00,Acu-Link.com,2013-01-13 10:30:00,
2013-01-13 05:45:00,42.6,41.8,30.03,SE,135,0.0,-999.0,97,-99.99,,,0.00,Acu-Link.com,2013-01-13 10:45:00,
2013-01-13 06:00:00,42.6,41.8,30.02,ESE,112,1.7,-999.0,97,-99.99,,,0.00,Acu-Link.com,2013-01-13 11:00:00,
2013-01-13 06:16:00,42.6,41.8,30.04,NE,45,0.0,-999.0,97,-99.99,,,0.00,Acu-Link.com,2013-01-13 11:16:00,
2013-01-13 06:31:00,42.6,41.8,30.06,SE,135,1.7,-999.0,97,-99.99,,,0.00,Acu-Link.com,2013-01-13 11:31:00,
2013-01-13 06:46:00,42.6,41.8,30.06,South,180,1.7,-999.0,97,-99.99,,,0.00,Acu-Link.com,2013-01-13 11:46:00,
2013-01-13 07:01:00,42.4,41.6,30.06,SE,135,2.7,-999.0,97,-99.99,,,0.00,Acu-Link.com,2013-01-13 12:01:00,
2013-01-13 07:17:00,42.4,41.6,30.06,SSW,202,1.7,-999.0,97,-99.99,,,0.00,Acu-Link.com,2013-01-13 12:17:00,
2013-01-13 07:32:00,42.6,41.8,30.06,SSE,157,0.0,-999.0,97,-99.99,,,0.00,Acu-Link.com,2013-01-13 12:32:00,
2013-01-13 07:47:00,42.6,41.8,30.06,NE,45,1.1,-999.0,97,-99.99,,,0.00,Acu-Link.com,2013-01-13 12:47:00,
2013-01-13 08:03:00,42.8,42.0,30.07,South,180,0.0,-999.0,97,-99.99,,,0.00,Acu-Link.com,2013-01-13 13:03:00,
2013-01-13 08:18:00,42.8,42.0,30.07,West,270,1.7,-999.0,97,-99.99,,,0.00,Acu-Link.com,2013-01-13 13:18:00,
2013-01-13 08:33:00,43.0,42.2,30.07,WSW,247,1.7,-999.0,97,-99.99,,,0.00,Acu-Link.com,2013-01-13 13:33:00,
2013-01-13 08:49:00,43.3,42.5,30.06,WNW,292,1.7,-999.0,97,-99.99,,,0.00,Acu-Link.com,2013-01-13 13:49:00,
2013-01-13 09:04:00,43.7,42.9,30.06,East,90,2.2,-999.0,97,-99.99,,,0.00,Acu-Link.com,2013-01-13 14:04:00,
2013-01-13 09:19:00,44.2,43.4,30.06,SSW,202,1.7,-999.0,97,-99.99,,,0.00,Acu-Link.com,2013-01-13 14:19:00,
2013-01-13 09:35:00,44.6,43.8,30.08,SSW,202,3.2,-999.0,97,-99.99,,,0.00,Acu-Link.com,2013-01-13 14:35:00,
2013-01-13 09:50:00,44.8,44.0,30.07,SSW,202,3.2,-999.0,97,-99.99,,,0.00,Acu-Link.com,2013-01-13 14:50:00,
2013-01-13 10:05:00,45.3,44.5,30.07,WSW,247,2.7,-999.0,97,-99.99,,,0.00,Acu-Link.com,2013-01-13 15:05:00,
2013-01-13 10:21:00,45.3,44.5,30.06,West,270,2.7,-999.0,97,-99.99,,,0.00,Acu-Link.com,2013-01-13 15:21:00,
2013-01-13 10:45:00,45.9,44.8,30.06,SW,225,3.2,-999.0,96,-99.99,,,0.00,Acu-Link.com,2013-01-13 15:45:00,
2013-01-13 12:25:00,46.9,45.0,30.03,South,180,1.7,-999.0,93,-99.99,,,0.00,Acu-Link.com,2013-01-13 17:25:00,
2013-01-13 12:40:00,47.7,45.2,30.00,SE,135,2.2,-999.0,91,-99.99,,,0.00,Acu-Link.com,2013-01-13 17:40:00,
2013-01-13 12:56:00,47.7,45.2,30.01,WSW,247,1.7,-999.0,91,-99.99,,,0.00,Acu-Link.com,2013-01-13 17:56:00,
2013-01-13 13:11:00,48.4,45.6,29.99,West,270,0.0,-999.0,90,-99.99,,,0.00,Acu-Link.com,2013-01-13 18:11:00,
2013-01-13 13:26:00,47.8,45.0,30.00,SW,225,1.1,-999.0,90,-99.99,,,0.00,Acu-Link.com,2013-01-13 18:26:00,
2013-01-13 13:42:00,48.4,45.6,30.00,WSW,247,2.2,-999.0,90,-99.99,,,0.00,Acu-Link.com,2013-01-13 18:42:00,
2013-01-13 13:57:00,50.2,47.4,29.99,West,270,6.8,-999.0,90,-99.99,,,0.00,Acu-Link.com,2013-01-13 18:57:00,
2013-01-13 14:12:00,50.7,47.3,29.99,West,270,9.4,-999.0,88,-99.99,,,0.00,Acu-Link.com,2013-01-13 19:12:00,
2013-01-13 14:28:00,50.4,47.0,29.98,SSE,157,5.8,-999.0,88,-99.99,,,0.00,Acu-Link.com,2013-01-13 19:28:00,
2013-01-13 14:43:00,49.5,46.1,30.00,WSW,247,1.7,-999.0,88,-99.99,,,0.00,Acu-Link.com,2013-01-13 19:43:00,
2013-01-13 14:58:00,49.1,45.7,29.99,SSW,202,2.2,-999.0,88,-99.99,,,0.00,Acu-Link.com,2013-01-13 19:58:00,
2013-01-13 15:13:00,48.9,45.8,29.98,SSE,157,1.1,-999.0,89,-99.99,,,0.00,Acu-Link.com,2013-01-13 20:13:00,
2013-01-13 15:29:00,48.6,45.5,29.97,SSE,157,1.7,-999.0,89,-99.99,,,0.00,Acu-Link.com,2013-01-13 20:29:00,
2013-01-13 15:44:00,48.2,45.7,29.98,WSW,247,2.7,-999.0,91,-99.99,,,0.00,Acu-Link.com,2013-01-13 20:44:00,
2013-01-13 16:00:00,47.7,45.2,29.98,SSE,157,1.7,-999.0,91,-99.99,,,0.00,Acu-Link.com,2013-01-13 21:00:00,
2013-01-13 16:15:00,46.9,44.7,29.96,ESE,112,2.2,-999.0,92,-99.99,,,0.00,Acu-Link.com,2013-01-13 21:15:00,
2013-01-13 16:30:00,46.8,44.9,29.97,NW,315,1.1,-999.0,93,-99.99,,,0.00,Acu-Link.com,2013-01-13 21:30:00,
2013-01-13 16:46:00,46.6,44.7,29.95,North,0,1.7,-999.0,93,-99.99,,,0.00,Acu-Link.com,2013-01-13 21:46:00,
2013-01-13 17:21:00,46.6,45.0,29.96,South,180,2.2,-999.0,94,-99.99,,,0.00,Acu-Link.com,2013-01-13 22:21:00,
2013-01-13 17:37:00,46.4,44.8,29.94,WSW,247,2.2,-999.0,94,-99.99,,,0.00,Acu-Link.com,2013-01-13 22:37:00,
2013-01-13 17:54:00,46.4,45.0,29.93,WSW,247,3.2,-999.0,95,-99.99,,,0.00,Acu-Link.com,2013-01-13 22:54:00,
2013-01-13 18:09:00,46.4,45.0,29.93,SW,225,3.2,-999.0,95,-99.99,,,0.00,Acu-Link.com,2013-01-13 23:09:00,
2013-01-13 18:26:00,46.6,45.2,29.94,North,0,2.2,-999.0,95,-99.99,,,0.00,Acu-Link.com,2013-01-13 23:26:00,
2013-01-13 18:42:00,47.1,45.7,29.91,West,270,3.7,-999.0,95,-99.99,,,0.00,Acu-Link.com,2013-01-13 23:42:00,
2013-01-13 18:57:00,47.5,46.1,29.93,SW,225,4.7,-999.0,95,-99.99,,,0.00,Acu-Link.com,2013-01-13 23:57:00,
2013-01-13 19:13:00,48.6,47.2,29.93,South,180,1.7,-999.0,95,-99.99,,,0.00,Acu-Link.com,2013-01-14 00:13:00,
2013-01-13 19:28:00,49.1,47.4,29.92,SSW,202,3.2,-999.0,94,-99.99,,,0.00,Acu-Link.com,2013-01-14 00:28:00,
2013-01-13 19:43:00,49.5,47.8,29.92,WNW,292,5.3,-999.0,94,-99.99,,,0.00,Acu-Link.com,2013-01-14 00:43:00,
2013-01-13 19:59:00,50.4,48.2,29.94,South,180,6.3,-999.0,92,-99.99,,,0.00,Acu-Link.com,2013-01-14 00:59:00,
2013-01-13 20:14:00,50.9,48.1,29.92,SW,225,3.7,-999.0,90,-99.99,,,0.00,Acu-Link.com,2013-01-14 01:14:00,
2013-01-13 20:29:00,51.1,48.3,29.94,SSW,202,1.7,-999.0,90,-99.99,,,0.00,Acu-Link.com,2013-01-14 01:29:00,
2013-01-13 20:45:00,50.9,48.1,29.95,SW,225,2.2,-999.0,90,-99.99,,,0.00,Acu-Link.com,2013-01-14 01:45:00,
2013-01-13 21:00:00,51.1,48.3,29.93,WSW,247,5.3,-999.0,90,-99.99,,,0.00,Acu-Link.com,2013-01-14 02:00:00,
2013-01-13 21:15:00,50.7,47.6,29.93,SSW,202,2.7,-999.0,89,-99.99,,,0.00,Acu-Link.com,2013-01-14 02:15:00,
2013-01-13 21:32:00,50.7,47.6,29.92,WSW,247,1.7,-999.0,89,-99.99,,,0.00,Acu-Link.com,2013-01-14 02:32:00,
2013-01-13 21:47:00,49.3,46.2,29.92,SW,225,2.2,-999.0,89,-99.99,,,0.00,Acu-Link.com,2013-01-14 02:47:00,
2013-01-13 22:03:00,48.6,45.8,29.93,WNW,292,2.2,-999.0,90,-99.99,,,0.00,Acu-Link.com,2013-01-14 03:03:00,
2013-01-13 22:19:00,48.6,46.1,29.92,ENE,67,1.7,-999.0,91,-99.99,,,0.00,Acu-Link.com,2013-01-14 03:19:00,
2013-01-13 22:38:00,48.6,46.1,29.91,NNE,22,1.1,-999.0,91,-99.99,,,0.00,Acu-Link.com,2013-01-14 03:38:00,
2013-01-13 23:08:00,48.0,45.8,29.91,NNW,337,1.1,-999.0,92,-99.99,,,0.00,Acu-Link.com,2013-01-14 04:08:00,